Content
SEND FEEDBACK

Daily
Averages
Monthly
Summary
United States of America

POTTS JUNCTION, GUAM


Home > North America > United States > Guam
Elevation: 110 meters     Latitude: 13 33N     Longitude: 144 50E

WEATHER
 
SELECT A DAY
Number of Records: 208,807;   Date Range: 1/1/95 - 7/7/14
 
SHARE

PRINT THIS DATA

[ ← Previous Day ]
WEATHER ALMANAC - 29 JUNE, 2013
[ Next Day → ]
[ °F ]   °C
We're sorry. There is no daily almanac available for Potts Junction, Guam on 29 June, 2013.
WEATHER BY HOUR - 29 JUNE, 2013
[ °F ]   °C
Local TimeTemperatureDewpointHumidityBarometerVisibilityWind DirectionWind SpeedGust SpeedPrecipitationEventsConditions
1:54 AM28.3 °C25 °C82 %1010.8 hPa16.1 kmEast (100°)9.3 km/hClear
2:54 AM28.3 °C25 °C82 %1010.8 hPa16.1 kmCalmPartly Cloudy
3:54 AM27.8 °C25 °C85 %1010.8 hPa16.1 kmEast (80°)9.3 km/h0.51 mmScattered Clouds
4:54 AM27.8 °C25 °C85 %1010.8 hPa16.1 kmEast (100°)9.3 km/h0 mmScattered Clouds
5:54 AM28.3 °C25 °C82 %1011.2 hPa16.1 kmEast (90°)9.3 km/hPartly Cloudy
6:54 AM27.8 °C24.4 °C82 %1011.9 hPa16.1 kmEast (90°)11.1 km/hScattered Clouds
7:54 AM28.9 °C25 °C79 %1011.9 hPa16.1 kmEast (100°)11.1 km/hPartly Cloudy
8:54 AM30 °C25 °C74 %1011.9 hPa16.1 kmEast (100°)16.7 km/hPartly Cloudy
9:54 AM30.6 °C25 °C72 %1012.2 hPa16.1 kmEast (100°)18.5 km/hScattered Clouds
10:21 AM31 °C24 °C66 %1012.9 hPa16.1 kmEast (100°)18.5 km/h27.8 km/hMostly Cloudy
10:47 AM31 °C25 °C70 %1012.5 hPa16.1 kmEast (90°)20.4 km/hMostly Cloudy
10:54 AM30.6 °C25 °C72 %1011.9 hPa16.1 kmESE (110°)16.7 km/hScattered Clouds
11:54 AM31.1 °C24.4 °C67 %1011.5 hPa16.1 kmESE (110°)13 km/hMostly Cloudy
12:07 PM32 °C24 °C62 %1012.2 hPa16.1 kmEast (100°)18.5 km/hScattered Clouds
12:43 PM31 °C25 °C70 %1012.2 hPa16.1 kmESE (110°)16.7 km/hMostly Cloudy
12:54 PM31.1 °C25 °C70 %1011.2 hPa16.1 kmESE (110°)20.4 km/h27.8 km/hOvercast
1:14 PM31 °C25 °C70 %1012.2 hPa16.1 kmESE (110°)24.1 km/hMostly Cloudy
1:54 PM31.1 °C24.4 °C67 %1011.2 hPa16.1 kmEast (90°)20.4 km/h37 km/hScattered Clouds
2:54 PM31.7 °C23.3 °C61 %1010.5 hPa16.1 kmESE (110°)14.8 km/hPartly Cloudy
3:54 PM31.1 °C24.4 °C67 %1010.2 hPa16.1 kmESE (110°)20.4 km/h29.6 km/hMostly Cloudy
4:12 PM31 °C24 °C66 %1010.8 hPa16.1 kmESE (120°)11.1 km/hMostly Cloudy
4:54 PM31.1 °C25 °C70 %1010.5 hPa16.1 kmEast (100°)16.7 km/hPartly Cloudy
5:54 PM30 °C24.4 °C72 %1010.8 hPa16.1 kmESE (120°)11.1 km/hMostly Cloudy
6:54 PM29.4 °C23.9 °C72 %1011.5 hPa16.1 kmEast (80°)13 km/hPartly Cloudy
7:54 PM29.4 °C23.9 °C72 %1011.9 hPa16.1 kmEast (90°)13 km/hScattered Clouds
8:54 PM29.4 °C24.4 °C74 %1012.2 hPa16.1 kmEast (90°)9.3 km/hScattered Clouds
9:54 PM28.9 °C24.4 °C76 %1012.5 hPa16.1 kmEast (90°)9.3 km/hPartly Cloudy
10:54 PM28.9 °C24.4 °C76 %1012.9 hPa16.1 kmEast (100°)9.3 km/hPartly Cloudy
11:54 PM28.3 °C23.9 °C77 %1012.2 hPa16.1 kmEast (100°)5.6 km/hPartly Cloudy
Hourly data recorded from PGUM, located 0 kilometers away from Potts Junction, Guam







STORIES FROM OUR PARTNERS